EST,Max TemperatureF,Mean TemperatureF,Min TemperatureF,Max Dew PointF,MeanDew PointF,Min DewpointF,Max Humidity, Mean Humidity, Min Humidity, Max Sea Level PressureIn, Mean Sea Level PressureIn, Min Sea Level PressureIn, Max VisibilityMiles, Mean VisibilityMiles, Min VisibilityMiles, Max Wind SpeedMPH, Mean Wind SpeedMPH, Max Gust SpeedMPH,PrecipitationIn, CloudCover, Events, WindDirDegrees
2013-1-1,27,23,19,18,13,9,74,62,50,30.19,30.13,30.08,10,9,2,17,8,21,T,8,Snow,309
2013-1-2,27,22,17,21,17,11,81,74,67,30.18,30.14,30.11,10,9,6,16,9,21,T,7,Snow,240
2013-1-3,30,24,17,25,19,10,85,76,67,30.19,30.11,30.03,10,6,1,18,10,32,0.01,8,Snow,235
2013-1-4,34,30,26,26,23,19,78,72,66,30.19,30.11,30.05,10,10,7,31,18,37,0.00,6,,249
2013-1-5,36,29,21,31,26,19,92,78,64,30.24,30.10,29.96,10,5,0,18,9,23,0.04,6,Fog-Snow,200
2013-1-6,36,34,31,32,29,21,89,75,61,30.29,30.00,29.85,10,6,1,18,10,24,0.10,8,Rain-Snow,265
2013-1-7,37,32,26,23,21,16,81,63,44,30.33,30.23,30.10,10,10,4,23,12,29,0.00,4,,208
2013-1-8,38,32,25,28,24,21,81,73,64,30.21,30.16,30.07,10,6,4,14,9,17,0.00,4,,184
2013-1-9,45,39,33,33,29,25,79,64,49,30.43,30.18,29.99,10,10,7,33,17,44,T,2,,249
2013-1-10,46,35,23,34,27,21,92,71,49,30.56,30.39,30.07,10,9,5,17,9,22,0.12,6,Rain,119
2013-1-11,53,45,37,52,43,34,96,90,83,30.05,29.84,29.71,10,5,1,24,11,32,0.58,8,Rain,166
2013-1-12,57,48,39,46,40,30,86,68,50,29.96,29.86,29.77,10,10,8,26,12,33,0.02,6,Rain,233
2013-1-13,39,33,26,34,30,18,96,86,75,30.12,29.94,29.84,10,6,2,23,9,30,0.27,8,Rain-Snow,300
2013-1-14,28,24,19,18,15,14,84,74,63,30.45,30.36,30.13,10,9,5,21,10,28,T,6,Snow,262
2013-1-15,32,24,16,19,16,12,88,73,58,30.44,30.35,30.16,10,10,7,9,4,14,T,3,,185
2013-1-16,36,27,18,29,21,14,84,68,52,30.13,29.94,29.78,10,8,6,28,14,35,T,5,Snow,227
2013-1-17,36,29,21,27,16,7,75,62,49,30.36,30.21,30.00,10,10,4,24,11,29,T,7,Snow,297
2013-1-18,40,29,17,25,16,7,73,58,43,30.43,30.21,29.89,10,10,6,29,12,36,T,7,,201
2013-1-19,46,43,39,35,30,22,70,62,53,29.89,29.78,29.60,10,10,10,37,18,47,T,6,,227
2013-1-20,40,28,15,15,9,6,80,63,45,30.23,30.11,29.71,10,5,1,43,15,52,T,8,Snow,290
2013-1-21,16,9,2,12,6,-3,88,78,67,30.18,30.08,30.00,4,2,0,24,13,30,0.14,8,Snow,299
2013-1-22,10,4,-2,2,-3,-8,86,75,63,30.32,30.24,30.13,10,4,1,16,7,24,0.02,7,Snow,299
2013-1-23,18,11,4,13,7,-1,88,81,73,30.32,30.17,30.03,10,3,0,15,7,17,0.15,8,Fog-Snow,203
2013-1-24,17,10,2,7,3,-1,91,70,49,30.65,30.50,30.24,10,10,5,10,4,14,T,4,Snow,13
2013-1-25,23,18,13,19,12,2,84,73,61,30.48,30.12,29.96,10,5,1,15,8,18,0.06,8,Snow,173
2013-1-26,29,25,20,19,16,14,84,69,53,30.45,30.30,30.09,10,9,4,15,7,20,T,7,Snow,283
2013-1-27,32,25,17,29,22,13,85,74,63,30.45,30.25,30.03,10,6,0,22,9,24,0.19,8,Fog-Rain-Snow,132
2013-1-28,44,38,32,43,35,28,100,90,79,30.02,29.92,29.81,10,4,0,20,9,26,0.20,8,Fog-Rain,211
2013-1-29,58,46,34,54,45,30,100,91,82,29.95,29.69,29.38,10,3,0,22,12,29,1.23,8,Fog-Rain-Thunderstorm,156
2013-1-30,54,40,26,52,42,19,96,89,81,29.39,29.28,29.11,10,4,0,28,11,38,0.67,8,Fog-Rain-Snow,248
2013-1-31,26,21,16,21,15,10,84,79,73,29.94,29.65,29.38,10,2,0,25,15,35,0.19,8,Snow,279